Regional Weather Roundup
Issued by NWS Burlington, VT

Home | Current Version | Previous Version | Text Only | Print | Product List | Glossary On
Versions: 1 2 3 4 5 6 7 8 9 10 11 12 13 14 15 16 17 18 19 20 21 22 23 24 25 26 27 28 29 30 31 32 33 34 35 36 37 38 39 40 41 42 43 44 45 46 47 48 49 50
000
ASUS41 KBTV 230810
RWRBTV
VERMONT REGIONAL WEATHER ROUNDUP
NATIONAL WEATHER SERVICE BURLINGTON VT
400 AM EDT MON OCT 23 2017

NOTE: "FAIR" INDICATES FEW OR NO CLOUDS BELOW 12,000 FEET WITH NO
SIGNIFICANT WEATHER AND/OR OBSTRUCTIONS TO VISIBILITY.

* THESE REPORTS ARE NOT UNDER NWS QUALITY CONTROL AND/OR DO NOT
  REPORT WEATHER SUCH AS PRECIPITATION AND FOG.

VTZ001>019-230900-
_____VERMONT_____


CITY           SKY/WX    TMP DP  RH WIND       PRES   REMARKS
BURLINGTON     CLEAR     61  39  44 S10       30.24F
ST. JOHNSBURY*   N/A     43  43 100 MISG      30.31F
LYNDONVILLE*   FAIR      51  47  87 SE8       30.34S
MIDDLEBURY*    FAIR      52  40  62 CALM      30.27S
RUTLAND*       CLEAR     52  41  66 SE15      30.30F
SPRINGFIELD    CLEAR     41  40  96 CALM      30.35F
HIGHGATE*      FAIR      64  40  40 S13G18    30.22S
NEWPORT*       FAIR      51  46  84 S6        30.29S
BENNINGTON     CLOUDY    50  37  61 E5        30.30F
SUTTON*          N/A     48 N/A N/A MISG        N/A

_____LAKE CHAMPLAIN_____


CITY           SKY/WX    TMP DP  RH WIND       PRES   REMARKS
BURTON ISLAND*   N/A     64  46  52 S20G25      N/A
COLCHESTER RF*   N/A     61  52  72 S25         N/A
DIAMOND ISL*     N/A     59  45  58 S6          N/A

$$

NYZ007-026>031-035-052-083-087-230900-
_____NORTHERN NEW YORK_____


CITY           SKY/WX    TMP DP  RH WIND       PRES   REMARKS
PLATTSBURGH    CLEAR     44  41  89 CALM      30.22S
SARANAC LAKE   CLEAR     35  35 100 CALM      30.22F
MASSENA        CLOUDY    45  43  93 CALM      30.19F
OGDENSBURG*    FAIR      60  45  57 S9        30.16F
POTSDAM*       CLEAR     61  45  55 SW3       30.18F
WATERTOWN      PTCLDY    62  46  55 S7        30.15F
ALBANY         PTCLDY    46  41  82 CALM      30.29F
GLENS FALLS    CLOUDY    41  38  89 CALM      30.28F

$$
NHZ002-005-011-230900-
_____NEW HAMPSHIRE_____


CITY           SKY/WX    TMP DP  RH WIND       PRES   REMARKS
LEBANON        CLEAR     43  41  93 CALM      30.34S FOG
KEENE          PTCLDY    39  37  93 CALM      30.36F FOG
MT WASHINGTON  PTCLDY    45  23  42 SW41G51     N/A
PLYMOUTH       CLOUDY    51  50  94 NE3       30.37S
WHITEFIELD     CLEAR     34  33  96 CALM      30.33F

$$

_____REGIONAL QUEBEC LOCATIONS_____


CITY           SKY/WX    TMP DP  RH WIND       PRES   REMARKS
MONTREAL       PTCLDY    45  41  87 N7        30.20F
QUEBEC CITY    PTCLDY    39  37  93 NE5       30.27S
SHERBROOKE     CLEAR     46  43  87 E3        30.26F

_____REGIONAL ONTARIO LOCATIONS_____


CITY           SKY/WX    TMP DP  RH WIND       PRES   REMARKS
OTTAWA         PTCLDY    50  45  81 SE6       30.16S

______KEY______
VSB  - VISIBILITY IN MILES
WCI  - WIND CHILL INDEX
HX   - HEAT INDEX
$$
NNNN




USA.gov is the U.S. government's official web portal to all federal, state and local government web resources and services.